| time (UTC) | temp C | wind direction | speed KPH | gust KPH | rain 1hr cm | rain 24hr cm | rain mn cm | humidity % | barometer mb |
| 20260507201002 | 21 | 318 | 19.3 | 33.8 | 0.00 | 0.00 | 0.00 | 51 | 1020.1 |
| 20260507200502 | 21 | 313 | 19.3 | 30.6 | 0.00 | 0.00 | 0.00 | 52 | 1020.2 |
| 20260507200002 | 21 | 317 | 17.7 | 30.6 | 0.00 | 0.00 | 0.00 | 51 | 1020.0 |
| 20260507195502 | 21 | 324 | 20.9 | 29.0 | 0.00 | 0.00 | 0.00 | 52 | 1020.0 |
| 20260507195002 | 21 | 320 | 20.9 | 29.0 | 0.00 | 0.00 | 0.00 | 52 | 1020.0 |
| 20260507194002 | 21 | 318 | 19.3 | 27.4 | 0.00 | 0.00 | 0.00 | 51 | 1020.0 |
| 20260507193502 | 21 | 322 | 17.7 | 29.0 | 0.00 | 0.00 | 0.00 | 51 | 1020.0 |
| 20260507193002 | 21 | 319 | 17.7 | 27.4 | 0.00 | 0.00 | 0.00 | 51 | 1020.0 |
| 20260507192503 | 21 | 322 | 17.7 | 29.0 | 0.00 | 0.00 | 0.00 | 51 | 1020.1 |
| 20260507192002 | 21 | 318 | 17.7 | 27.4 | 0.00 | 0.00 | 0.00 | 51 | 1020.0 |
| 20260507191502 | 21 | 317 | 17.7 | 24.1 | 0.00 | 0.00 | 0.00 | 52 | 1020.2 |
| 20260507191002 | 21 | 313 | 17.7 | 27.4 | 0.00 | 0.00 | 0.00 | 52 | 1020.2 |
| 20260507190502 | 21 | 319 | 16.1 | 29.0 | 0.00 | 0.00 | 0.00 | 51 | 1020.1 |
| 20260507190004 | 21 | 316 | 16.1 | 25.7 | 0.00 | 0.00 | 0.00 | 52 | 1020.3 |
| 20260507185502 | 21 | 316 | 17.7 | 25.7 | 0.00 | 0.00 | 0.00 | 52 | 1020.4 |
| 20260507185002 | 21 | 313 | 16.1 | 29.0 | 0.00 | 0.00 | 0.00 | 52 | 1020.4 |
| 20260507184504 | 21 | 317 | 14.5 | 19.3 | 0.00 | 0.00 | 0.00 | 52 | 1020.4 |
| 20260507184003 | 21 | 323 | 12.9 | 22.5 | 0.00 | 0.00 | 0.00 | 52 | 1020.4 |
| 20260507183502 | 21 | 322 | 12.9 | 20.9 | 0.00 | 0.00 | 0.00 | 52 | 1020.6 |
| 20260507182502 | 21 | 319 | 11.3 | 19.3 | 0.00 | 0.00 | 0.00 | 52 | 1020.6 |
| 20260507181503 | 21 | 329 | 9.7 | 24.1 | 0.00 | 0.00 | 0.00 | 52 | 1020.7 |
| 20260507181003 | 20 | 326 | 9.7 | 17.7 | 0.00 | 0.00 | 0.00 | 52 | 1020.8 |
| 20260507180503 | 20 | 315 | 11.3 | 16.1 | 0.00 | 0.00 | 0.00 | 52 | 1020.9 |
| 20260507180002 | 20 | 314 | 12.9 | 17.7 | 0.00 | 0.00 | 0.00 | 52 | 1021.0 |
| 20260507175502 | 20 | 316 | 14.5 | 20.9 | 0.00 | 0.00 | 0.00 | 53 | 1020.7 |
| 20260507175002 | 20 | 319 | 11.3 | 20.9 | 0.00 | 0.00 | 0.00 | 52 | 1020.7 |
| 20260507174503 | 20 | 321 | 11.3 | 20.9 | 0.00 | 0.00 | 0.00 | 53 | 1020.6 |
| 20260507174003 | 19 | 320 | 12.9 | 17.7 | 0.00 | 0.00 | 0.00 | 54 | 1020.6 |
| 20260507173502 | 19 | 318 | 12.9 | 25.7 | 0.00 | 0.00 | 0.00 | 54 | 1020.7 |
| 20260507173004 | 19 | 320 | 14.5 | 19.3 | 0.00 | 0.00 | 0.00 | 54 | 1020.7 |
| 20260507172502 | 18 | 316 | 14.5 | 20.9 | 0.00 | 0.00 | 0.00 | 55 | 1020.7 |
| 20260507172003 | 18 | 319 | 12.9 | 20.9 | 0.00 | 0.00 | 0.00 | 54 | 1020.8 |
| 20260507171502 | 18 | 321 | 12.9 | 22.5 | 0.00 | 0.00 | 0.00 | 56 | 1020.7 |
| 20260507171002 | 18 | 322 | 12.9 | 17.7 | 0.00 | 0.00 | 0.00 | 55 | 1020.8 |
| 20260507170502 | 18 | 323 | 11.3 | 19.3 | 0.00 | 0.00 | 0.00 | 55 | 1020.7 |
| 20260507170002 | 18 | 322 | 12.9 | 19.3 | 0.00 | 0.00 | 0.00 | 57 | 1020.8 |
| 20260507165503 | 18 | 320 | 11.3 | 17.7 | 0.00 | 0.00 | 0.00 | 56 | 1020.8 |
| 20260507165003 | 18 | 324 | 9.7 | 19.3 | 0.00 | 0.00 | 0.00 | 56 | 1020.8 |
| 20260507164502 | 18 | 318 | 9.7 | 16.1 | 0.00 | 0.00 | 0.00 | 57 | 1020.9 |
| 20260507163503 | 17 | 322 | 4.8 | 17.7 | 0.00 | 0.00 | 0.00 | 57 | 1021.0 |
| 20260507162503 | 17 | 325 | 4.8 | 12.9 | 0.00 | 0.00 | 0.00 | 60 | 1021.0 |
| 20260507162003 | 17 | 332 | 4.8 | 12.9 | 0.00 | 0.00 | 0.00 | 60 | 1021.0 |
| 20260507161503 | 16 | 326 | 4.8 | 6.4 | 0.00 | 0.00 | 0.00 | 62 | 1021.1 |
| 20260507161003 | 16 | 328 | 3.2 | 9.7 | 0.00 | 0.00 | 0.00 | 63 | 1021.1 |
| 20260507160502 | 16 | 340 | 1.6 | 4.8 | 0.00 | 0.00 | 0.00 | 65 | 1021.2 |
| 20260507160003 | 16 | 328 | 1.6 | 4.8 | 0.00 | 0.00 | 0.00 | 67 | 1021.3 |
| 20260507155503 | 15 | 316 | 3.2 | 6.4 | 0.00 | 0.00 | 0.00 | 68 | 1021.1 |
| 20260507155002 | 15 | 323 | 3.2 | 8.0 | 0.00 | 0.00 | 0.00 | 69 | 1021.2 |
| 20260507154502 | 15 | 330 | 1.6 | 6.4 | 0.00 | 0.00 | 0.00 | 71 | 1021.2 |
| 20260507154003 | 14 | 330 | 1.6 | 6.4 | 0.00 | 0.00 | 0.00 | 74 | 1021.2 |
| 20260507153502 | 13 | 0 | 0.0 | 0.0 | 0.00 | 0.00 | 0.00 | 75 | 1021.2 |
| 20260507153003 | 13 | 124 | 0.0 | 3.2 | 0.00 | 0.00 | 0.00 | 78 | 1021.3 |
| 20260507152503 | 12 | 127 | 1.6 | 3.2 | 0.00 | 0.00 | 0.00 | 80 | 1021.4 |
| 20260507152002 | 12 | 134 | 0.0 | 3.2 | 0.00 | 0.00 | 0.00 | 82 | 1021.3 |
| 20260507151502 | 11 | 0 | 0.0 | 0.0 | 0.00 | 0.00 | 0.00 | 85 | 1021.4 |
| 20260507151003 | 11 | 0 | 0.0 | 0.0 | 0.00 | 0.00 | 0.00 | 86 | 1021.3 |
| 20260507150503 | 10 | 140 | 0.0 | 1.6 | 0.00 | 0.00 | 0.00 | 87 | 1021.3 |
| 20260507145502 | 10 | 0 | 0.0 | 0.0 | 0.00 | 0.00 | 0.00 | 89 | 1021.4 |
| 20260507145003 | 9 | 0 | 0.0 | 0.0 | 0.00 | 0.00 | 0.00 | 89 | 1021.4 |
| 20260507144502 | 9 | 0 | 0.0 | 0.0 | 0.00 | 0.00 | 0.00 | 89 | 1021.4 |
| 20260507144003 | 9 | 142 | 0.0 | 1.6 | 0.00 | 0.00 | 0.00 | 90 | 1021.6 |
| 20260507143502 | 8 | 143 | 0.0 | 1.6 | 0.00 | 0.00 | 0.00 | 90 | 1021.5 |
| 20260507142503 | 8 | 0 | 0.0 | 0.0 | 0.00 | 0.00 | 0.00 | 90 | 1021.5 |
| 20260507142002 | 7 | 0 | 0.0 | 0.0 | 0.00 | 0.00 | 0.00 | 89 | 1021.5 |
| 20260507141502 | 7 | 144 | 1.6 | 1.6 | 0.00 | 0.00 | 0.00 | 89 | 1021.2 |
| 20260507141003 | 7 | 143 | 0.0 | 3.2 | 0.00 | 0.00 | 0.00 | 88 | 1021.2 |
| 20260507140005 | 6 | 0 | 0.0 | 0.0 | 0.00 | 0.00 | 0.00 | 87 | 1021.2 |
| 20260507135503 | 6 | 128 | 0.0 | 3.2 | 0.00 | 0.00 | 0.00 | 86 | 1021.1 |
| 20260507135003 | 6 | 124 | 0.0 | 1.6 | 0.00 | 0.00 | 0.00 | 86 | 1020.9 |
| 20260507134503 | 6 | 0 | 1.6 | 0.0 | 0.00 | 0.00 | 0.00 | 85 | 1020.9 |
| 20260507133503 | 6 | 131 | 0.0 | 3.2 | 0.00 | 0.00 | 0.00 | 85 | 1020.7 |
| 20260507133002 | 6 | 139 | 0.0 | 1.6 | 0.00 | 0.00 | 0.00 | 84 | 1020.7 |
| 20260507132003 | 7 | 139 | 0.0 | 3.2 | 0.00 | 0.00 | 0.00 | 84 | 1020.7 |
| 20260507130503 | 7 | 151 | 1.6 | 3.2 | 0.00 | 0.00 | 0.00 | 84 | 1020.4 |
| 20260507130002 | 7 | 139 | 1.6 | 3.2 | 0.00 | 0.00 | 0.00 | 84 | 1020.4 |
| 20260507125502 | 7 | 142 | 1.6 | 3.2 | 0.00 | 0.00 | 0.00 | 84 | 1020.7 |
| 20260507125003 | 7 | 150 | 0.0 | 1.6 | 0.00 | 0.00 | 0.00 | 84 | 1020.7 |
| 20260507124503 | 7 | 176 | 0.0 | 1.6 | 0.00 | 0.00 | 0.00 | 84 | 1020.7 |
| 20260507123502 | 7 | 0 | 0.0 | 0.0 | 0.00 | 0.00 | 0.00 | 83 | 1020.7 |
| 20260507123002 | 7 | 0 | 0.0 | 0.0 | 0.00 | 0.00 | 0.00 | 83 | 1020.7 |
| 20260507122503 | 7 | 0 | 0.0 | 0.0 | 0.00 | 0.00 | 0.00 | 84 | 1020.7 |
| 20260507121503 | 7 | 156 | 1.6 | 3.2 | 0.00 | 0.00 | 0.00 | 85 | 1020.8 |
| 20260507121002 | 8 | 165 | 1.6 | 4.8 | 0.00 | 0.00 | 0.00 | 85 | 1020.8 |
| 20260507120503 | 8 | 209 | 1.6 | 3.2 | 0.00 | 0.00 | 0.00 | 85 | 1020.8 |
| 20260507115003 | 8 | 201 | 0.0 | 1.6 | 0.00 | 0.00 | 0.00 | 85 | 1020.9 |
| 20260507114002 | 8 | 218 | 1.6 | 3.2 | 0.00 | 0.00 | 0.00 | 85 | 1020.9 |
| 20260507113502 | 8 | 219 | 1.6 | 3.2 | 0.00 | 0.00 | 0.00 | 85 | 1020.9 |
| 20260507113003 | 8 | 210 | 1.6 | 3.2 | 0.00 | 0.00 | 0.00 | 85 | 1021.0 |
| 20260507112503 | 8 | 201 | 0.0 | 3.2 | 0.00 | 0.00 | 0.00 | 84 | 1021.1 |
| 20260507112003 | 8 | 199 | 0.0 | 1.6 | 0.00 | 0.00 | 0.00 | 84 | 1021.1 |
| 20260507111503 | 8 | 0 | 0.0 | 0.0 | 0.00 | 0.00 | 0.00 | 84 | 1021.1 |
| 20260507110502 | 8 | 201 | 0.0 | 1.6 | 0.00 | 0.00 | 0.00 | 85 | 1021.1 |
| 20260507110003 | 8 | 201 | 0.0 | 1.6 | 0.00 | 0.00 | 0.00 | 84 | 1021.1 |
| 20260507105503 | 8 | 0 | 0.0 | 0.0 | 0.00 | 0.00 | 0.00 | 84 | 1021.1 |
| 20260507105003 | 8 | 199 | 0.0 | 1.6 | 0.00 | 0.00 | 0.00 | 85 | 1021.1 |
| 20260507104502 | 8 | 0 | 0.0 | 0.0 | 0.00 | 0.00 | 0.00 | 85 | 1021.1 |
| 20260507104003 | 8 | 195 | 0.0 | 3.2 | 0.00 | 0.00 | 0.00 | 85 | 1021.1 |
| 20260507103503 | 8 | 203 | 0.0 | 1.6 | 0.00 | 0.00 | 0.00 | 85 | 1021.1 |
| 20260507103003 | 8 | 205 | 0.0 | 3.2 | 0.00 | 0.00 | 0.00 | 85 | 1021.2 |
| 20260507102503 | 8 | 191 | 0.0 | 1.6 | 0.00 | 0.00 | 0.00 | 85 | 1021.1 |
| 20260507101502 | 8 | 189 | 0.0 | 3.2 | 0.00 | 0.00 | 0.00 | 85 | 1021.2 |
| 20260507101003 | 8 | 0 | 0.0 | 0.0 | 0.00 | 0.00 | 0.00 | 84 | 1021.2 |
| 20260507100503 | 8 | 0 | 0.0 | 0.0 | 0.00 | 0.00 | 0.00 | 85 | 1021.2 |
| 20260507100003 | 8 | 0 | 0.0 | 0.0 | 0.00 | 0.00 | 0.00 | 85 | 1021.3 |
| 20260507095503 | 8 | 191 | 0.0 | 1.6 | 0.00 | 0.00 | 0.00 | 84 | 1021.2 |
| 20260507095004 | 8 | 192 | 1.6 | 3.2 | 0.00 | 0.00 | 0.00 | 84 | 1021.2 |
| 20260507094502 | 8 | 184 | 0.0 | 3.2 | 0.00 | 0.00 | 0.00 | 84 | 1021.3 |
| 20260507094003 | 8 | 164 | 0.0 | 1.6 | 0.00 | 0.00 | 0.00 | 84 | 1021.3 |
| 20260507093502 | 8 | 162 | 0.0 | 1.6 | 0.00 | 0.00 | 0.00 | 84 | 1021.3 |
| 20260507093003 | 8 | 196 | 0.0 | 3.2 | 0.00 | 0.00 | 0.00 | 84 | 1021.3 |
| 20260507092503 | 8 | 223 | 0.0 | 1.6 | 0.00 | 0.00 | 0.00 | 84 | 1021.4 |
| 20260507092003 | 8 | 221 | 0.0 | 1.6 | 0.00 | 0.00 | 0.00 | 84 | 1021.3 |
| 20260507091002 | 8 | 0 | 0.0 | 0.0 | 0.00 | 0.00 | 0.00 | 84 | 1021.4 |
| 20260507090503 | 8 | 0 | 0.0 | 0.0 | 0.00 | 0.00 | 0.00 | 84 | 1021.4 |
| 20260507090003 | 8 | 225 | 0.0 | 1.6 | 0.00 | 0.00 | 0.00 | 84 | 1021.5 |
| 20260507085503 | 8 | 0 | 0.0 | 0.0 | 0.00 | 0.00 | 0.00 | 83 | 1021.4 |
| 20260507085003 | 8 | 0 | 0.0 | 0.0 | 0.00 | 0.00 | 0.00 | 83 | 1021.6 |
| 20260507084503 | 8 | 227 | 0.0 | 1.6 | 0.00 | 0.00 | 0.00 | 83 | 1021.6 |
| 20260507084003 | 8 | 226 | 0.0 | 1.6 | 0.00 | 0.00 | 0.00 | 83 | 1021.6 |
| 20260507082003 | 9 | 0 | 0.0 | 0.0 | 0.00 | 0.00 | 0.00 | 82 | 1021.7 |
| 20260507081003 | 9 | 0 | 0.0 | 0.0 | 0.00 | 0.00 | 0.00 | 82 | 1021.8 |
| 20260507080503 | 9 | 236 | 0.0 | 1.6 | 0.00 | 0.00 | 0.00 | 81 | 1021.8 |
| 20260507080004 | 9 | 0 | 0.0 | 0.0 | 0.00 | 0.00 | 0.00 | 81 | 1021.8 |
| 20260507075502 | 9 | 0 | 0.0 | 0.0 | 0.00 | 0.00 | 0.00 | 81 | 1021.5 |
| 20260507075004 | 10 | 0 | 0.0 | 0.0 | 0.00 | 0.00 | 0.00 | 81 | 1021.8 |
| 20260507074503 | 10 | 236 | 0.0 | 1.6 | 0.00 | 0.00 | 0.00 | 81 | 1021.7 |
| 20260507074004 | 10 | 0 | 0.0 | 0.0 | 0.00 | 0.00 | 0.00 | 81 | 1021.7 |
| 20260507073503 | 10 | 0 | 1.6 | 0.0 | 0.00 | 0.00 | 0.00 | 81 | 1021.7 |
| 20260507073003 | 10 | 236 | 1.6 | 1.6 | 0.00 | 0.00 | 0.00 | 81 | 1021.8 |
| 20260507072504 | 10 | 235 | 0.0 | 3.2 | 0.00 | 0.00 | 0.00 | 80 | 1021.8 |
| 20260507072003 | 10 | 237 | 0.0 | 1.6 | 0.00 | 0.00 | 0.00 | 80 | 1021.8 |
| 20260507071504 | 10 | 237 | 0.0 | 1.6 | 0.00 | 0.00 | 0.00 | 80 | 1021.8 |
| 20260507071003 | 10 | 237 | 0.0 | 1.6 | 0.00 | 0.00 | 0.00 | 79 | 1021.8 |
| 20260507070503 | 10 | 242 | 0.0 | 3.2 | 0.00 | 0.00 | 0.00 | 80 | 1021.8 |
| 20260507065503 | 10 | 222 | 1.6 | 3.2 | 0.00 | 0.00 | 0.00 | 79 | 1021.6 |
| 20260507065003 | 10 | 193 | 1.6 | 3.2 | 0.00 | 0.00 | 0.00 | 79 | 1021.6 |
| 20260507064503 | 10 | 164 | 0.0 | 3.2 | 0.00 | 0.00 | 0.00 | 79 | 1021.7 |
| 20260507064004 | 10 | 0 | 0.0 | 0.0 | 0.00 | 0.00 | 0.00 | 79 | 1021.6 |
| 20260507063503 | 10 | 0 | 0.0 | 0.0 | 0.00 | 0.00 | 0.00 | 79 | 1021.6 |
| 20260507063003 | 10 | 166 | 0.0 | 6.4 | 0.00 | 0.00 | 0.00 | 79 | 1021.6 |
| 20260507061503 | 10 | 0 | 0.0 | 0.0 | 0.00 | 0.00 | 0.00 | 78 | 1021.6 |
| 20260507060503 | 11 | 178 | 0.0 | 1.6 | 0.00 | 0.00 | 0.00 | 77 | 1021.7 |
| 20260507060003 | 11 | 0 | 0.0 | 0.0 | 0.00 | 0.00 | 0.00 | 77 | 1021.7 |
| 20260507055503 | 11 | 0 | 0.0 | 0.0 | 0.00 | 0.00 | 0.00 | 76 | 1021.7 |
| 20260507055003 | 11 | 178 | 0.0 | 1.6 | 0.00 | 0.00 | 0.00 | 76 | 1021.7 |
| 20260507054504 | 11 | 0 | 0.0 | 0.0 | 0.00 | 0.00 | 0.00 | 76 | 1021.6 |
| 20260507053003 | 11 | 0 | 0.0 | 0.0 | 0.00 | 0.00 | 0.00 | 75 | 1021.6 |
| 20260507052504 | 11 | 175 | 0.0 | 1.6 | 0.00 | 0.00 | 0.00 | 74 | 1021.6 |
| 20260507052003 | 11 | 166 | 0.0 | 4.8 | 0.00 | 0.00 | 0.00 | 74 | 1021.6 |
| 20260507051506 | 12 | 165 | 1.6 | 4.8 | 0.00 | 0.00 | 0.00 | 74 | 1021.7 |
| 20260507051003 | 12 | 162 | 3.2 | 4.8 | 0.00 | 0.00 | 0.00 | 74 | 1021.7 |
| 20260507050502 | 12 | 155 | 1.6 | 4.8 | 0.00 | 0.00 | 0.00 | 73 | 1021.6 |
| 20260507050003 | 12 | 176 | 0.0 | 6.4 | 0.00 | 0.00 | 0.00 | 73 | 1021.6 |
| 20260507045503 | 12 | 0 | 0.0 | 0.0 | 0.00 | 0.00 | 0.00 | 73 | 1021.5 |
| 20260507045004 | 12 | 0 | 0.0 | 0.0 | 0.00 | 0.00 | 0.00 | 72 | 1021.5 |
| 20260507044503 | 12 | 0 | 0.0 | 0.0 | 0.00 | 0.00 | 0.00 | 71 | 1021.5 |
| 20260507044003 | 12 | 287 | 0.0 | 1.6 | 0.00 | 0.00 | 0.00 | 71 | 1021.5 |
| 20260507043503 | 12 | 0 | 0.0 | 0.0 | 0.00 | 0.00 | 0.00 | 71 | 1021.5 |
| 20260507042503 | 13 | 0 | 0.0 | 0.0 | 0.00 | 0.00 | 0.00 | 70 | 1021.5 |
| 20260507042003 | 13 | 0 | 0.0 | 0.0 | 0.00 | 0.00 | 0.00 | 70 | 1021.4 |
| 20260507041503 | 13 | 0 | 0.0 | 0.0 | 0.00 | 0.00 | 0.00 | 69 | 1021.4 |
| 20260507041003 | 13 | 304 | 0.0 | 4.8 | 0.00 | 0.00 | 0.00 | 69 | 1021.3 |
| 20260507040504 | 13 | 0 | 0.0 | 0.0 | 0.00 | 0.00 | 0.00 | 68 | 1021.3 |
| 20260507035502 | 13 | 0 | 0.0 | 0.0 | 0.00 | 0.00 | 0.00 | 67 | 1021.2 |
| 20260507035003 | 13 | 0 | 0.0 | 0.0 | 0.00 | 0.00 | 0.00 | 67 | 1021.2 |
| 20260507034503 | 14 | 0 | 1.6 | 0.0 | 0.00 | 0.00 | 0.00 | 67 | 1021.0 |
| 20260507034003 | 14 | 334 | 1.6 | 6.4 | 0.00 | 0.00 | 0.00 | 66 | 1021.0 |
| 20260507033503 | 14 | 328 | 0.0 | 4.8 | 0.00 | 0.00 | 0.00 | 66 | 1021.1 |
| 20260507033003 | 14 | 0 | 0.0 | 0.0 | 0.00 | 0.00 | 0.00 | 66 | 1021.1 |
| 20260507032504 | 14 | 319 | 1.6 | 3.2 | 0.00 | 0.00 | 0.00 | 66 | 1020.9 |
| 20260507031503 | 14 | 318 | 1.6 | 6.4 | 0.00 | 0.00 | 0.00 | 65 | 1020.9 |
| 20260507031002 | 15 | 312 | 1.6 | 4.8 | 0.00 | 0.00 | 0.00 | 65 | 1020.9 |
| 20260507030003 | 15 | 314 | 3.2 | 3.2 | 0.00 | 0.00 | 0.00 | 64 | 1020.6 |
| 20260507025504 | 15 | 315 | 3.2 | 6.4 | 0.00 | 0.00 | 0.00 | 64 | 1020.5 |
| 20260507025003 | 15 | 315 | 3.2 | 6.4 | 0.00 | 0.00 | 0.00 | 64 | 1020.4 |
| 20260507024503 | 15 | 316 | 4.8 | 6.4 | 0.00 | 0.00 | 0.00 | 64 | 1020.5 |
| 20260507024004 | 15 | 301 | 4.8 | 8.0 | 0.00 | 0.00 | 0.00 | 63 | 1020.4 |
| 20260507023503 | 15 | 314 | 6.4 | 8.0 | 0.00 | 0.00 | 0.00 | 63 | 1020.4 |
| 20260507023004 | 15 | 317 | 6.4 | 6.4 | 0.00 | 0.00 | 0.00 | 62 | 1020.3 |
| 20260507022503 | 15 | 313 | 6.4 | 9.7 | 0.00 | 0.00 | 0.00 | 62 | 1020.3 |
| 20260507022003 | 16 | 315 | 4.8 | 9.7 | 0.00 | 0.00 | 0.00 | 61 | 1020.2 |
| 20260507020503 | 16 | 308 | 9.7 | 16.1 | 0.00 | 0.00 | 0.00 | 59 | 1020.1 |
| 20260507020004 | 16 | 310 | 11.3 | 14.5 | 0.00 | 0.00 | 0.00 | 58 | 1020.1 |
| 20260507015503 | 17 | 313 | 11.3 | 16.1 | 0.00 | 0.00 | 0.00 | 58 | 1020.0 |
| 20260507015004 | 17 | 315 | 11.3 | 17.7 | 0.00 | 0.00 | 0.00 | 57 | 1020.1 |
| 20260507014503 | 17 | 311 | 11.3 | 14.5 | 0.00 | 0.00 | 0.00 | 57 | 1020.1 |
| 20260507014003 | 17 | 316 | 11.3 | 19.3 | 0.00 | 0.00 | 0.00 | 56 | 1020.1 |
| 20260507013004 | 17 | 314 | 9.7 | 16.1 | 0.00 | 0.00 | 0.00 | 56 | 1020.2 |
| 20260507012503 | 17 | 321 | 11.3 | 19.3 | 0.00 | 0.00 | 0.00 | 56 | 1020.2 |
| 20260507012003 | 17 | 316 | 12.9 | 19.3 | 0.00 | 0.00 | 0.00 | 55 | 1020.2 |
| 20260507011503 | 17 | 312 | 14.5 | 16.1 | 0.00 | 0.00 | 0.00 | 55 | 1020.1 |
| 20260507010503 | 17 | 316 | 14.5 | 22.5 | 0.00 | 0.00 | 0.00 | 55 | 1020.2 |
| 20260507010004 | 17 | 312 | 14.5 | 22.5 | 0.00 | 0.00 | 0.00 | 55 | 1020.0 |
| 20260507005003 | 18 | 313 | 16.1 | 22.5 | 0.00 | 0.00 | 0.00 | 54 | 1019.9 |
| 20260507004505 | 18 | 317 | 14.5 | 24.1 | 0.00 | 0.00 | 0.00 | 55 | 1019.9 |
| 20260507004003 | 18 | 312 | 16.1 | 24.1 | 0.00 | 0.00 | 0.00 | 54 | 1019.9 |
| 20260507003503 | 18 | 302 | 16.1 | 17.7 | 0.00 | 0.00 | 0.00 | 54 | 1019.9 |
| 20260507003003 | 18 | 311 | 16.1 | 24.1 | 0.00 | 0.00 | 0.00 | 54 | 1019.9 |
| 20260507002504 | 18 | 314 | 16.1 | 22.5 | 0.00 | 0.00 | 0.00 | 55 | 1020.0 |
| 20260507001503 | 18 | 319 | 14.5 | 29.0 | 0.00 | 0.00 | 0.00 | 55 | 1019.9 |
| 20260507001004 | 18 | 324 | 14.5 | 20.9 | 0.00 | 0.00 | 0.00 | 55 | 1019.8 |
| 20260506235504 | 18 | 320 | 19.3 | 29.0 | 0.00 | 0.00 | 0.00 | 55 | 1019.6 |
| 20260506234503 | 18 | 313 | 17.7 | 22.5 | 0.00 | 0.00 | 0.00 | 56 | 1019.6 |
| 20260506233503 | 18 | 322 | 17.7 | 29.0 | 0.00 | 0.00 | 0.00 | 56 | 1019.6 |
| 20260506233003 | 18 | 315 | 16.1 | 25.7 | 0.00 | 0.00 | 0.00 | 55 | 1019.6 |
| 20260506232503 | 18 | 313 | 17.7 | 22.5 | 0.00 | 0.00 | 0.00 | 56 | 1019.7 |
| 20260506232003 | 18 | 322 | 16.1 | 20.9 | 0.00 | 0.00 | 0.00 | 56 | 1019.8 |
| 20260506231503 | 18 | 323 | 17.7 | 25.7 | 0.00 | 0.00 | 0.00 | 57 | 1019.8 |
| 20260506231003 | 18 | 314 | 19.3 | 24.1 | 0.00 | 0.00 | 0.00 | 58 | 1019.8 |
| 20260506230503 | 18 | 324 | 19.3 | 27.4 | 0.00 | 0.00 | 0.00 | 57 | 1019.9 |
| 20260506230004 | 18 | 321 | 19.3 | 29.0 | 0.00 | 0.00 | 0.00 | 57 | 1019.7 |
| 20260506225503 | 18 | 320 | 17.7 | 25.7 | 0.00 | 0.00 | 0.00 | 57 | 1019.7 |
| 20260506225004 | 18 | 322 | 17.7 | 27.4 | 0.00 | 0.00 | 0.00 | 57 | 1019.7 |
| 20260506224503 | 18 | 319 | 17.7 | 27.4 | 0.00 | 0.00 | 0.00 | 58 | 1019.7 |
| 20260506223504 | 17 | 320 | 20.9 | 24.1 | 0.00 | 0.00 | 0.00 | 59 | 1019.7 |
| 20260506223003 | 17 | 318 | 20.9 | 35.4 | 0.00 | 0.00 | 0.00 | 58 | 1019.9 |
| 20260506222003 | 18 | 317 | 19.3 | 27.4 | 0.00 | 0.00 | 0.00 | 59 | 1019.9 |
| 20260506221003 | 17 | 320 | 20.9 | 30.6 | 0.00 | 0.00 | 0.00 | 60 | 1020.0 |
| 20260506220504 | 17 | 322 | 19.3 | 30.6 | 0.00 | 0.00 | 0.00 | 60 | 1020.1 |
| 20260506220004 | 17 | 318 | 19.3 | 30.6 | 0.00 | 0.00 | 0.00 | 61 | 1020.1 |
| 20260506215503 | 17 | 318 | 19.3 | 32.2 | 0.00 | 0.00 | 0.00 | 61 | 1020.0 |
| 20260506215005 | 17 | 321 | 19.3 | 30.6 | 0.00 | 0.00 | 0.00 | 61 | 1019.9 |
| 20260506214504 | 17 | 321 | 19.3 | 29.0 | 0.00 | 0.00 | 0.00 | 61 | 1019.9 |
| 20260506214004 | 17 | 321 | 19.3 | 30.6 | 0.00 | 0.00 | 0.00 | 61 | 1019.9 |
| 20260506213504 | 17 | 322 | 19.3 | 25.7 | 0.00 | 0.00 | 0.00 | 61 | 1019.9 |
| 20260506213004 | 17 | 325 | 16.1 | 33.8 | 0.00 | 0.00 | 0.00 | 61 | 1019.8 |
| 20260506212503 | 17 | 321 | 16.1 | 24.1 | 0.00 | 0.00 | 0.00 | 61 | 1019.9 |
| 20260506212002 | 17 | 322 | 16.1 | 29.0 | 0.00 | 0.00 | 0.00 | 61 | 1019.9 |
| 20260506211503 | 17 | 316 | 16.1 | 25.7 | 0.00 | 0.00 | 0.00 | 61 | 1019.9 |
| 20260506211002 | 17 | 320 | 16.1 | 27.4 | 0.00 | 0.00 | 0.00 | 61 | 1019.9 |
| 20260506210502 | 17 | 316 | 16.1 | 25.7 | 0.00 | 0.00 | 0.00 | 62 | 1019.9 |
| 20260506210003 | 17 | 317 | 16.1 | 24.1 | 0.00 | 0.00 | 0.00 | 62 | 1020.0 |
| 20260506205502 | 17 | 323 | 17.7 | 25.7 | 0.00 | 0.00 | 0.00 | 61 | 1020.0 |
| 20260506205002 | 17 | 317 | 17.7 | 27.4 | 0.00 | 0.00 | 0.00 | 62 | 1020.0 |
| 20260506204502 | 17 | 320 | 16.1 | 22.5 | 0.00 | 0.00 | 0.00 | 62 | 1020.1 |
| 20260506204003 | 17 | 318 | 16.1 | 24.1 | 0.00 | 0.00 | 0.00 | 62 | 1020.0 |
| 20260506203502 | 17 | 323 | 16.1 | 24.1 | 0.00 | 0.00 | 0.00 | 62 | 1020.1 |
| 20260506203003 | 17 | 322 | 16.1 | 22.5 | 0.00 | 0.00 | 0.00 | 62 | 1020.2 |
| 20260506202503 | 17 | 318 | 14.5 | 24.1 | 0.00 | 0.00 | 0.00 | 62 | 1020.2 |
| 20260506201502 | 17 | 319 | 12.9 | 22.5 | 0.00 | 0.00 | 0.00 | 62 | 1020.3 |